Weather History for Jackson, MI

Change the Weather History Date:

Sunday, March 2, 2014

  Actual Average Record
Temperature  
Mean Temperature 10 °F 30 °F  
Max Temperature 20 °F 39 °F 61 °F (1983)
Min Temperature 0 °F 22 °F -6 °F (1978)
Degree Days  
Heating Degree Days 55 35  
Month to date heating degree days 98 70  
Since 1 July heating degree days 5662 4984  
Cooling Degree Days 0 0  
Month to date cooling degree days 0 0  
Year to date cooling degree days 0 0  
Moisture  
Dew Point 5 °F    
Average Humidity 70    
Maximum Humidity 88    
Minimum Humidity 51    
Precipitation  
Precipitation 0.11 in 0.05 in 0.97 in (1976)
Month to date precipitation 0.37 0.11  
Year to date precipitation 4.65 2.89  
Sea Level Pressure  
Sea Level Pressure 30.29 in    
Wind  
Wind Speed 5 mph (NNE)    
Max Wind Speed 13 mph    
Max Gust Speed 17 mph    
Visibility 6 miles    
Events Snow    
T = Trace of Precipitation, MM = Missing Value Source: NWS Daily Summary

Daily Weather History Graph

Daily Weather History Graph

Search for Another Location

Airport:

Trip Planner

Search our weather history database for the weather conditions in past years. The results will help you decide how hot, cold, wet, or windy it might be!

Date:

Astronomy

Mar. 02, 2014 Rise Set
Actual Time 7:11 AM EST 6:29 PM EST
Civil Twilight 6:43 AM EST 6:57 PM EST
Nautical Twilight 6:10 AM EST 7:29 PM EST
Astronomical Twilight 5:38 AM EST 8:02 PM EST
Moon 7:39 AM EST (3/2) 8:27 PM EST (3/2)
Length of Visible Light 12h 13m
Length of Day
11h 17m
Waxing Crescent, 3% of the Moon is Illuminated
Mar 2
Waxing Crescent
Mar 8
First Quarter
Mar 16
Full
Mar 23
Last Quarter
Mar 30
New

Hourly Weather History & Observations

Time (EST) Temp. Windchill Dew Point Humidity Pressure Visibility Wind Dir Wind Speed Gust Speed Precip Events Conditions
12:35 AM 16.0 °F 3.6 °F 12.9 °F 88% 30.22 in 0.8 mi North 10.4 mph - 0.03 in Snow Light Snow
12:56 AM 15.1 °F 5.2 °F 12.0 °F 88% 30.27 in 0.8 mi North 6.9 mph - 0.05 in Snow Light Snow
1:08 AM 15.1 °F 2.5 °F 10.9 °F 84% 30.22 in 1.0 mi NNE 10.4 mph - 0.00 in Snow Light Snow
1:25 AM 14.0 °F 1.2 °F 10.0 °F 84% 30.22 in 3.0 mi NNE 10.4 mph - 0.00 in Snow Light Snow
1:32 AM 14.0 °F 0.5 °F 10.0 °F 84% 30.23 in 2.5 mi North 11.5 mph - 0.00 in Snow Light Snow
1:56 AM 14.0 °F 2.9 °F 10.0 °F 84% 30.29 in 1.2 mi NNE 8.1 mph - 0.00 in Snow Light Snow
2:26 AM 12.9 °F 0.7 °F 8.1 °F 81% 30.23 in 1.2 mi NE 9.2 mph - 0.01 in Snow Light Snow
2:36 AM 12.0 °F -1.3 °F 8.1 °F 84% 30.24 in 1.8 mi NNE 10.4 mph - 0.01 in Snow Light Snow
2:56 AM 10.9 °F -1.8 °F 7.0 °F 84% 30.31 in 1.5 mi North 9.2 mph - 0.01 in Snow Light Snow
3:56 AM 10.9 °F 1.4 °F 7.0 °F 84% 30.30 in 1.0 mi NE 5.8 mph - 0.02 in Snow Light Snow
4:25 AM 10.9 °F 2.9 °F 7.0 °F 84% 30.25 in 2.0 mi NNE 4.6 mph - 0.00 in Snow Light Snow
4:34 AM 10.9 °F 0.2 °F 7.0 °F 84% 30.25 in 1.8 mi North 6.9 mph - 0.00 in Snow Light Snow
4:56 AM 10.0 °F -0.9 °F 6.1 °F 84% 30.30 in 1.5 mi NNE 6.9 mph - 0.01 in Snow Light Snow
5:56 AM 10.0 °F 1.8 °F 6.1 °F 84% 30.31 in 1.0 mi NNE 4.6 mph - 0.02 in Snow Light Snow
6:46 AM 9.0 °F -2.2 °F 3.9 °F 80% 30.26 in 2.5 mi NNE 6.9 mph - 0.00 in Snow Light Snow
6:54 AM 8.6 °F -2.6 °F 3.2 °F 79% 30.27 in 4.0 mi NNE 6.9 mph - 0.00 in Snow Light Snow
6:56 AM 9.0 °F -2.2 °F 3.9 °F 80% 30.32 in 5.0 mi NNE 6.9 mph - 0.00 in Snow Light Snow
7:56 AM 9.0 °F -0.9 °F 3.9 °F 80% 30.32 in 10.0 mi NE 5.8 mph - 0.00 in   Overcast
8:56 AM 10.9 °F 1.4 °F 3.9 °F 73% 30.33 in 10.0 mi ENE 5.8 mph - N/A   Overcast
9:56 AM 12.0 °F 1.5 °F 5.0 °F 73% 30.34 in 10.0 mi NNE 6.9 mph - N/A   Overcast
10:56 AM 12.0 °F - 3.9 °F 70% 30.32 in 10.0 mi Calm Calm - N/A   Overcast
11:56 AM 15.1 °F 9.4 °F 5.0 °F 64% 30.33 in 10.0 mi Variable 3.5 mph - N/A   Overcast
12:56 PM 15.1 °F - 5.0 °F 64% 30.32 in 10.0 mi Calm Calm - N/A   Overcast
1:56 PM 17.1 °F 11.7 °F 5.0 °F 59% 30.30 in 10.0 mi NNW 3.5 mph - N/A   Mostly Cloudy
2:14 PM 18.0 °F 8.7 °F 5.0 °F 57% 30.23 in 10.0 mi North 6.9 mph - N/A   Scattered Clouds
2:56 PM 19.0 °F 12.3 °F 5.0 °F 54% 30.29 in 10.0 mi Variable 4.6 mph - N/A   Clear
3:46 PM 17.1 °F 7.6 °F 3.9 °F 56% 30.22 in 10.0 mi North 6.9 mph - N/A   Mostly Cloudy
3:56 PM 17.1 °F 6.6 °F 3.9 °F 56% 30.28 in 10.0 mi NNW 8.1 mph - N/A   Mostly Cloudy
4:09 PM 17.1 °F 6.6 °F 3.9 °F 56% 30.22 in 10.0 mi North 8.1 mph - N/A   Mostly Cloudy
4:56 PM 16.0 °F 8.8 °F 3.0 °F 57% 30.30 in 10.0 mi NE 4.6 mph - N/A   Mostly Cloudy
5:56 PM 14.0 °F 2.9 °F 3.0 °F 62% 30.32 in 10.0 mi North 8.1 mph - N/A   Overcast
6:07 PM 12.9 °F 2.6 °F 3.0 °F 65% 30.24 in 10.0 mi NNE 6.9 mph - N/A   Overcast
6:56 PM 12.0 °F 4.1 °F 1.0 °F 61% 30.31 in 10.0 mi North 4.6 mph - N/A   Overcast
7:56 PM 10.9 °F 2.9 °F 1.0 °F 64% 30.34 in 10.0 mi NE 4.6 mph - N/A   Overcast
8:56 PM 8.1 °F 1.4 °F -0.9 °F 67% 30.34 in 10.0 mi NNW 3.5 mph - N/A   Clear
9:56 PM 3.9 °F -3.4 °F -2.0 °F 76% 30.35 in 10.0 mi NNW 3.5 mph - N/A   Clear
10:56 PM 1.9 °F -5.6 °F -2.9 °F 80% 30.37 in 10.0 mi NW 3.5 mph - N/A   Partly Cloudy
11:56 PM 3.9 °F -8.2 °F -5.1 °F 66% 30.38 in 10.0 mi NNW 6.9 mph - N/A   Clear